Starlink 32873

operational
NORAD ID: 62857 Int'l Des: 2025-022 Owner: SPXS Country: US Constellation: starlink
LEOCIRCULAR

关于 Starlink 32873

正在加载描述...

实时位置

正在加载3D地球...

即将过境

高度历史

Altitude vs Time

uPlot chart will show altitude changes over time

两行轨道根数

1 62857U 25022D 26033.14024985 .00023930 00000-0 81740-3 0 9996
2 62857 53.1576 295.0066 0001131 76.8976 283.2151 15.30202687 56450
Epoch: Feb 2, 2026 • Age: 30 hours

当前状态

高度 478.8 km
速度 7.63 km/s
星下点 43.68°N, 145.1°E
发射日期 Feb 2, 2025
运行时间 0.9 years
类型 internet

技术详情

分类 Payload
质量 730.00 kg
干质量 700.00 kg
总质量 730.00 kg
长度 0.30 m
直径 4.10 m
跨度 29.00 m
形状 Box + pan
制造商 SPXS
平台类型 Starlink V2M
阶段状态 In Orbit
所有者/国家 SPXS/US

大型星座

Loading constellations...